Location: Cruquius
(52.3348°N, 4.6319°E)
Time: 14:11:28
(UTC+00:00)

Cosmos 2341 Rocket - Pass Details

Date: 12 May 2021
Orbit: 968 x 1004 km, 82.9° (Epoch: 19 June)

Event Time Altitude Azimuth Distance (km) Brightness Sun altitude
Rises 22:19:59 0° 348° (NNW) 3,745 8.8 -17.3°
Reaches altitude 10° 22:22:32 10° 346° (NNW) 2,792 7.7 -17.4°
Maximum altitude 22:28:54 68° 265° (W) 1,080 4.2 -17.7°
Enters shadow 22:32:46 25° 189° (S) 1,905 5.0 -17.9°
